EW9733 Weather Reports


Display with metric or nautical units.
time (UTC)temp
F
wind
direction
speed
MPH
gust
MPH
rain 1hr
in
rain 24hr
in
rain mn
in
humidity
%
barometer
mb
20260906083100 60 43 0.0 0.0 0.02 0.03 0.02 91 1011.9
20260906081600 60 43 0.0 2.0 0.01 0.02 0.01 91 1011.8
20260906080058 60 42 0.0 2.0 0.00 0.01 0.00 91 1011.8
20260906074557 60 46 0.0 3.0 0.00 0.01 0.00 91 1011.5
20260906073056 60 47 0.0 2.0 0.00 0.01 0.00 91 1011.5
20260906071605 60 47 0.0 0.0 0.00 0.01 0.00 91 1011.6
20260906070055 59 47 0.0 0.0 0.00 0.01 0.00 91 1011.6
20260906064555 59 47 0.0 0.0 0.00 0.01 0.00 90 1011.5
20260906063051 59 47 0.0 0.0 0.00 0.01 0.00 90 1011.4
20260906061551 59 47 0.0 0.0 0.00 0.01 0.00 90 1011.5
20260906060050 59 47 0.0 0.0 0.00 0.01 0.00 89 1011.5
20260906054551 59 47 0.0 0.0 0.00 0.01 0.00 89 1011.5
20260906053047 59 47 0.0 0.0 0.00 0.01 0.00 89 1011.5
20260906051552 59 47 0.0 0.0 0.00 0.01 0.00 88 1011.7
20260906050109 60 47 0.0 0.0 0.00 0.01 0.00 88 1011.8
20260906044545 60 47 0.0 0.0 0.00 0.01 0.00 88 1011.8
20260906043041 60 47 0.0 0.0 0.00 0.01 0.00 87 1011.6
20260906041539 60 47 0.0 0.0 0.00 0.01 0.00 87 1011.6
20260906040044 61 47 0.0 0.0 0.00 0.01 0.00 87 1011.5
20260906034542 61 47 0.0 0.0 0.00 0.01 0.01 87 1011.3
20260906033036 61 47 0.0 0.0 0.00 0.01 0.01 87 1011.3
20260906031541 62 47 0.0 0.0 0.00 0.01 0.01 86 1011.2
20260906030036 62 47 0.0 0.0 0.00 0.01 0.01 86 1011.3
20260906024537 62 47 0.0 0.0 0.00 0.01 0.01 86 1011.4
20260906023038 62 47 0.0 0.0 0.00 0.01 0.01 85 1011.4
20260906021532 63 47 0.0 0.0 0.00 0.01 0.01 85 1011.3
20260906020032 63 47 0.0 0.0 0.00 0.01 0.01 85 1011.2
20260906014534 63 47 0.0 0.0 0.00 0.01 0.01 84 1011.4
20260906013032 63 47 0.0 0.0 0.00 0.01 0.01 84 1011.5
20260906011533 63 47 0.0 0.0 0.00 0.01 0.01 83 1011.3
20260906010030 63 47 0.0 0.0 0.00 0.01 0.01 83 1011.3
20260906004531 64 47 0.0 0.0 0.00 0.01 0.01 82 1011.2
20260906003026 64 47 0.0 0.0 0.00 0.01 0.01 82 1011.0
20260906001525 64 47 0.0 0.0 0.00 0.01 0.01 81 1010.9
20260906000029 64 47 0.0 0.0 0.00 0.01 0.01 81 1010.9
20260905234523 65 47 0.0 0.0 0.00 0.01 0.01 80 1010.8
20260905233027 65 47 0.0 0.0 0.00 0.01 0.01 79 1010.7
20260905231521 65 47 0.0 0.0 0.00 0.01 0.01 78 1010.7
20260905230020 66 47 0.0 1.0 0.00 0.01 0.01 78 1010.6
20260905224520 66 47 0.0 2.0 0.00 0.01 0.01 77 1010.6
20260905223020 66 47 0.0 3.0 0.00 0.01 0.01 77 1010.5
20260905221517 66 44 0.0 4.0 0.00 0.01 0.01 76 1010.5
20260905220016 67 24 2.0 5.0 0.00 0.01 0.01 75 1010.3
20260905214515 67 152 2.0 8.0 0.00 0.01 0.01 73 1010.1
20260905213013 68 80 1.0 9.0 0.00 0.01 0.01 72 1010.0
20260905211512 68 95 1.0 7.0 0.00 0.01 0.01 73 1009.9
20260905210011 68 61 1.0 13.0 0.00 0.01 0.01 73 1010.0
20260905204512 68 72 0.0 6.0 0.00 0.01 0.01 76 1009.8
20260905203009 68 172 2.0 14.0 0.00 0.01 0.01 75 1009.8
20260905201508 69 170 3.0 9.0 0.00 0.01 0.01 73 1009.6
20260905200009 69 28 2.0 11.0 0.00 0.01 0.01 75 1009.3
20260905194509 69 185 5.0 14.0 0.00 0.01 0.01 74 1009.2
20260905193011 69 42 3.0 14.0 0.00 0.01 0.01 74 1009.4
20260905191506 69 52 1.0 10.0 0.00 0.01 0.01 77 1009.4
20260905190012 68 40 1.0 5.0 0.00 0.01 0.01 78 1009.4
20260905184508 67 17 2.0 10.0 0.00 0.01 0.01 77 1009.6
20260905183003 68 25 5.0 13.0 0.00 0.01 0.01 77 1009.6
20260905181510 69 28 2.0 12.0 0.00 0.01 0.01 77 1009.7
20260905180004 68 71 1.0 11.0 0.00 0.01 0.01 79 1009.6
20260905174504 69 28 3.0 11.0 0.00 0.01 0.01 79 1009.4
20260905173109 69 82 1.0 10.0 0.00 0.01 0.01 78 1009.3
20260905171558 70 22 4.0 11.0 0.00 0.01 0.01 75 1009.1
20260905170057 70 355 0.0 10.0 0.00 0.01 0.01 77 1009.1
20260905164556 70 24 3.0 11.0 0.00 0.01 0.01 75 1009.0
20260905163103 71 39 1.0 9.0 0.00 0.01 0.01 74 1008.9
20260905161553 71 84 1.0 10.0 0.00 0.01 0.01 75 1008.8
20260905160057 71 23 3.0 12.0 0.00 0.01 0.01 74 1008.7
20260905154552 69 48 1.0 5.0 0.00 0.01 0.01 78 1008.8
20260905153053 69 49 5.0 13.0 0.00 0.01 0.01 78 1008.7
20260905151548 69 45 0.0 8.0 0.00 0.01 0.01 76 1008.8
20260905150046 71 31 0.0 14.0 0.00 0.01 0.01 74 1008.6
20260905144551 73 38 0.0 5.0 0.00 0.01 0.01 74 1008.5
20260905143042 71 67 1.0 8.0 0.00 0.01 0.01 74 1008.2
20260905141602 71 90 0.0 3.0 0.00 0.01 0.01 76 1008.4
20260905140048 71 67 0.0 5.0 0.00 0.01 0.01 76 1008.6
20260905134534 71 306 0.0 8.0 0.00 0.01 0.01 79 1008.5
20260905133042 69 92 3.0 7.0 0.00 0.01 0.01 81 1008.4
20260905131539 68 194 1.0 6.0 0.00 0.01 0.01 84 1008.2
20260905130023 66 90 3.0 10.0 0.01 0.01 0.01 89 1008.2
20260905124517 65 44 0.0 9.0 0.01 0.01 0.01 93 1008.1
20260905123013 63 355 1.0 6.0 0.01 0.01 0.01 94 1008.0
20260905121509 62 58 0.0 4.0 0.01 0.01 0.01 94 1007.8
20260905120006 61 131 0.0 3.0 0.00 0.00 0.00 95 1007.8
20260905114626 60 163 0.0 2.0 0.00 0.00 0.00 94 1007.8
20260905113055 59 91 0.0 0.0 0.00 0.00 0.00 94 1007.7
20260905111553 58 91 0.0 0.0 0.00 0.00 0.00 93 1007.5
20260905110048 58 91 0.0 0.0 0.00 0.00 0.00 93 1007.2
20260905104547 57 91 0.0 0.0 0.00 0.00 0.00 93 1007.0
20260905103045 57 91 0.0 0.0 0.00 0.00 0.00 93 1007.0
20260905101545 57 91 0.0 0.0 0.00 0.00 0.00 93 1007.0
20260905100101 57 91 0.0 0.0 0.00 0.00 0.00 93 1006.9
20260905094542 57 91 0.0 0.0 0.00 0.00 0.00 93 1006.9
20260905093041 58 91 0.0 0.0 0.00 0.00 0.00 92 1007.0
20260905091552 58 91 0.0 0.0 0.00 0.00 0.00 92 1006.9
20260905090039 58 91 0.0 0.0 0.00 0.00 0.00 92 1006.9
20260905084536 58 91 0.0 0.0 0.00 0.00 0.00 92 1006.8